sat.trackr.live / text

‹ back to catalog

STARLINK-37198

NORAD 68386 · 2026-063G

PAYLOAD ACTIVE UNKNOWN

§ Identity

Operator
Country
US
Launch date
2026-03-26
Launch site
AFWTR
Launch vehicle
Mass (kg)
RCS (m²)

Purposes: comms

External: N2YO · Heavens-Above · Gunter

§ Orbital elements

Epoch: 2026-05-25T02:58:04.151424Z

Period
93.91 min
Inclination
97.2849°
Eccentricity
0.0000411
Mean motion
15.33451647 rev/d
Perigee alt
465.2 km
Apogee alt
465.8 km
Semi-major
6,843.7 km
B*
6.0594e-4
RAAN
287.7585°
Arg perigee
18.8096°
Mean anomaly
341.3161°
Rev number
961

§ Raw data

STARLINK-371981 68386U 26063G   26145.12365916  .00019541  00000+0  60594-3 0  99952 68386  97.2849 287.7585 0000411  18.8096 341.3161 15.33451647  9616

JSON: /api/v1/satellites/68386 · /tle

For live sub-satellite position, see the globe view (requires WebGL).

§ Visibility from observer

Set your observer location to see the next 7 days of passes ≥ 10°. The values pass through the URL so the page stays shareable.

No JS? Fill the form by hand. The geolocation button needs JavaScript.